User: anonymous   Login
Location: Knowlton
(51.2333°N, 1.2667°E)
Time: 17:19:41
(UTC+00:00)
Language:

BEESAT 3 - Orbit

View from above orbital plane
View from above orbital plane
View from above satellite
View from above satellite

Ground track
Ground track

The orbit data is extracted from the following two-line orbital elements,

1 39134U 13015E   21336.73064100  .00005801  00000-0  24598-3 0  9991
2 39134  64.8637 344.7939 0025167 308.8902  50.9982 15.23832886476844
Epoch (UTC): 02 December 2021 17:32:07
Eccentricity: 0.0025167
inclination: 64.8637°
perigee height: 477 km
apogee height: 511 km
right ascension of ascending node: 344.7939°
argument of perigee: 308.8902°
revolutions per day: 15.23832886
mean anomaly at epoch: 50.9982°
orbit number at epoch: 47684

The dashed part of the orbit path shows where the satellite is in the earth's shadow,  

DLR